{"data":{"norad_id":65989,"intl_designator":"2025-230R","name":"SDA_1679","alt_names":[],"object_type":"PAYLOAD","status":"ACTIVE","operator":null,"country":"US","launch_date":"2025-10-15","launch_site_code":"AFWTR","launch_vehicle":null,"mission":null,"orbit_class":"UNKNOWN","rcs_meters":null,"size_class":null,"mass_kg":null,"dimensions":null,"purposes":[],"wikipedia_slug":null,"has_3d_model":false,"image_url":null,"decayed_at":null,"tle_current":{"epoch":"2026-09-20T21:04:04.951776Z","epoch_age_seconds":107782,"freshness":"FRESH","line1":"1 65989U 25230R   26263.87783509  .00000102  00000+0  79940-4 0  9990","line2":"2 65989  81.3010 122.9281 0002767 323.2126  36.8841 13.84861202 47060","mean_motion":13.84861202,"eccentricity":0.0002767,"inclination_deg":81.301,"raan_deg":122.9281,"arg_perigee_deg":323.2126,"mean_anomaly_deg":36.8841,"bstar":7.994e-5,"rev_number":4706,"period_min":103.98153966046,"perigee_km":944.66834494054,"apogee_km":948.72190703906,"semimajor_km":7324.8321259898,"source":"CELESTRAK","updated_at":"2026-09-21T09:00:15.690149Z"}}}